Le nostre stazioni meteo in Italia

Pubblicità
Il mio iltempo24.it
Kielder Castle, Gran Bretagna (99186): Temperatura & dewpoint: 17.05.2017 15:00:00 - 23.05.2017 15:00:00 (BST)Kielder Castle, Gran Bretagna (99186): Temperatura 5cm: 17.05.2017 15:00:00 - 23.05.2017 15:00:00 (BST)Kielder Castle, Gran Bretagna (99186): Temperatura -20cm & Temperatura -100cm: 17.05.2017 15:00:00 - 23.05.2017 15:00:00 (BST)Kielder Castle, Gran Bretagna (99186): visibility: 17.05.2017 15:00:00 - 23.05.2017 15:00:00 (BST)Kielder Castle, Gran Bretagna (99186): precipitazioni: 17.05.2017 15:00:00 - 23.05.2017 15:00:00 (BST)
Data & Tempo tt [°C] td [°C] tt 5cm [°C] tt -20cm [°C] tt -100cm [°C] vv [km] rr [mm]
23.05.2017 15:00:00 16,4 8,6 - - - - 0,0
23.05.2017 14:00:00 15,6 7,9 - - - - 0,0
23.05.2017 13:00:00 15,1 7,6 - - - - 0,0
23.05.2017 12:00:00 14,5 7,4 - - - - 0,0
23.05.2017 11:00:00 13,2 6,3 - - - - 0,0
23.05.2017 10:00:00 13,0 7,1 13,0 12,7 11,0 3,2 0,0
23.05.2017 09:00:00 11,9 7,5 - - - - 0,0
23.05.2017 08:00:00 9,4 8,5 - - - - 0,0
23.05.2017 07:00:00 6,8 6,4 - - - - 0,0
23.05.2017 06:00:00 6,0 5,6 - - - - 0,0
23.05.2017 05:00:00 6,1 5,6 - - - - 0,0
23.05.2017 04:00:00 7,0 6,5 - - - - 0,0
23.05.2017 03:00:00 7,9 7,2 - - - - 0,0
23.05.2017 02:00:00 9,2 8,6 - - - - 0,0
23.05.2017 01:00:00 9,4 8,8 - - - - 0,0
23.05.2017 00:00:00 10,0 8,8 - - - - 0,0
22.05.2017 23:00:00 11,5 9,8 - - - - 0,2
22.05.2017 22:00:00 12,2 10,4 - - - - 0,0
22.05.2017 21:00:00 12,7 11,0 - - - - 0,0
22.05.2017 20:00:00 13,2 10,7 - - - - 0,0
22.05.2017 19:00:00 13,6 12,5 - - - - 0,0
22.05.2017 18:00:00 13,8 12,4 - - - - 2,0
22.05.2017 17:00:00 16,5 12,7 - - - - 0,0
22.05.2017 16:00:00 16,5 12,8 - - - - 0,0
22.05.2017 15:00:00 16,0 13,0 - - - - 0,0
22.05.2017 14:00:00 14,6 12,6 - - - - 0,2
22.05.2017 13:00:00 14,5 11,1 - - - - 0,0
22.05.2017 12:00:00 15,2 10,5 - - - - 0,0
22.05.2017 11:00:00 14,4 10,0 - - - - 0,0
22.05.2017 10:00:00 13,7 10,1 13,7 12,4 11,0 2,0 0,0
22.05.2017 09:00:00 12,1 9,4 - - - - 0,0
22.05.2017 08:00:00 10,5 10,1 - - - - 0,0
22.05.2017 07:00:00 7,4 7,2 - - - - 0,0
22.05.2017 06:00:00 5,1 4,9 - - - - 0,0
22.05.2017 05:00:00 4,8 4,5 - - - - 0,0
22.05.2017 04:00:00 4,7 4,4 - - - - 0,0
22.05.2017 03:00:00 5,6 5,2 - - - - 0,0
22.05.2017 02:00:00 5,7 5,4 - - - - 0,0
22.05.2017 01:00:00 5,9 5,3 - - - - 0,0
22.05.2017 00:00:00 7,0 6,2 - - - - 0,0
21.05.2017 23:00:00 8,3 7,2 - - - - 0,0
21.05.2017 22:00:00 10,3 8,9 - - - - 0,0
21.05.2017 21:00:00 12,0 9,4 - - - - 0,0
21.05.2017 20:00:00 13,1 9,5 - - - - 0,0
21.05.2017 19:00:00 13,8 8,0 - - - - 0,0
21.05.2017 18:00:00 14,5 9,0 - - - - 0,0
21.05.2017 17:00:00 13,2 8,7 - - - - 0,0
21.05.2017 16:00:00 14,1 9,8 - - - - 0,0
21.05.2017 15:00:00 12,5 9,2 - - - - -
21.05.2017 14:00:00 12,6 9,7 - - - - 0,0
21.05.2017 13:00:00 11,2 9,1 - - - - 0,0
21.05.2017 12:00:00 10,6 8,3 - - - - 0,0
21.05.2017 11:00:00 12,1 8,2 - - - - 0,0
21.05.2017 10:00:00 11,2 9,1 11,3 12,4 11,0 0,1 0,0
21.05.2017 09:00:00 8,7 8,5 - - - - 0,0
21.05.2017 08:00:00 6,9 6,7 - - - - 0,0
21.05.2017 07:00:00 5,5 5,4 - - - - 0,0
21.05.2017 06:00:00 3,8 3,7 - - - - 0,0
21.05.2017 05:00:00 3,5 3,3 - - - - 0,0
21.05.2017 04:00:00 2,8 2,5 - - - - 0,0
21.05.2017 03:00:00 3,3 3,1 - - - - 0,2
21.05.2017 02:00:00 2,9 2,5 - - - - 0,0
21.05.2017 01:00:00 3,8 3,4 - - - - 0,0
21.05.2017 00:00:00 4,6 4,1 - - - - 0,0
20.05.2017 23:00:00 5,8 5,2 - - - - 0,0
20.05.2017 22:00:00 7,2 6,2 - - - - 0,2
20.05.2017 21:00:00 8,9 7,3 - - - - 0,2
20.05.2017 20:00:00 9,6 8,0 - - - - 0,0
20.05.2017 19:00:00 9,9 8,0 - - - - 1,2
20.05.2017 18:00:00 10,5 7,9 - - - - 0,0
20.05.2017 17:00:00 11,3 8,9 - - - - 0,0
20.05.2017 16:00:00 10,2 8,7 - - - - 0,4
20.05.2017 15:00:00 9,6 8,0 - - - - 0,8
20.05.2017 14:00:00 8,2 7,2 - - - - 3,4
20.05.2017 13:00:00 9,3 7,8 - - - - 1,0
20.05.2017 12:00:00 10,3 8,3 - - - - 0,0
20.05.2017 11:00:00 9,2 7,2 - - - - 0,8
20.05.2017 10:00:00 9,7 7,5 9,8 12,9 10,9 22 0,0
20.05.2017 09:00:00 9,1 7,3 - - - - 0,0
20.05.2017 08:00:00 9,0 7,7 - - - - 0,0
20.05.2017 07:00:00 8,1 7,5 - - - - 0,2
20.05.2017 06:00:00 7,3 6,9 - - - - 0,6
20.05.2017 05:00:00 7,4 6,8 - - - - 0,0
20.05.2017 04:00:00 7,6 7,0 - - - - 0,0
20.05.2017 03:00:00 7,7 7,1 - - - - 0,2
20.05.2017 02:00:00 7,8 7,3 - - - - 0,0
20.05.2017 01:00:00 7,8 7,2 - - - - 0,0
20.05.2017 00:00:00 8,0 7,3 - - - - 0,2
19.05.2017 23:00:00 8,4 7,5 - - - - 0,0
19.05.2017 22:00:00 8,6 7,4 - - - - 0,0
19.05.2017 21:00:00 9,2 7,3 - - - - 0,0
19.05.2017 20:00:00 9,6 6,8 - - - - 0,0
19.05.2017 19:00:00 10,5 7,1 - - - - 0,0
19.05.2017 18:00:00 10,7 7,9 - - - - 0,0
19.05.2017 17:00:00 10,8 8,2 - - - - 0,0
19.05.2017 16:00:00 9,8 8,2 - - - - 0,2
19.05.2017 15:00:00 9,9 8,8 - - - - 0,8
19.05.2017 14:00:00 8,9 7,1 - - - - 0,6
19.05.2017 13:00:00 13,6 5,8 - - - - 0,0
19.05.2017 12:00:00 12,7 5,7 - - - - 0,0
19.05.2017 11:00:00 12,2 5,5 - - - - 0,0
19.05.2017 10:00:00 11,9 5,8 11,9 13,0 10,7 3,1 0,0
19.05.2017 09:00:00 9,9 4,3 - - - - 0,0
19.05.2017 08:00:00 8,0 5,2 - - - - 0,0
19.05.2017 07:00:00 5,5 4,2 - - - - 0,0
19.05.2017 06:00:00 4,3 3,6 - - - - 0,0
19.05.2017 05:00:00 4,3 3,5 - - - - 0,0
19.05.2017 04:00:00 4,5 3,6 - - - - 0,0
19.05.2017 03:00:00 4,8 3,9 - - - - 0,0
19.05.2017 02:00:00 5,6 4,1 - - - - 0,0
19.05.2017 01:00:00 6,2 4,6 - - - - 0,0
19.05.2017 00:00:00 7,1 5,0 - - - - 0,0
18.05.2017 23:00:00 8,2 4,9 - - - - 0,0
18.05.2017 22:00:00 8,4 4,7 - - - - 0,0
18.05.2017 21:00:00 10,3 3,9 - - - - 0,0
18.05.2017 20:00:00 11,8 3,0 - - - - 0,0
18.05.2017 19:00:00 12,5 1,4 - - - - 0,0
18.05.2017 18:00:00 14,1 1,4 - - - - 0,0
18.05.2017 17:00:00 14,9 3,1 - - - - 0,0
18.05.2017 16:00:00 15,3 4,0 - - - - 0,0
18.05.2017 15:00:00 15,0 2,8 - - - - 0,0
18.05.2017 14:00:00 13,8 3,3 - - - - 0,0
18.05.2017 13:00:00 13,6 5,6 - - - - 0,0
18.05.2017 12:00:00 13,4 6,4 - - - - 0,0
18.05.2017 11:00:00 13,2 6,6 - - - - 0,0
18.05.2017 10:00:00 12,4 7,4 12,4 12,7 10,7 0,9 0,0
18.05.2017 09:00:00 10,6 7,9 - - - - 0,0
18.05.2017 08:00:00 8,8 6,7 - - - - 0,0
18.05.2017 07:00:00 8,1 7,7 - - - - 0,0
18.05.2017 06:00:00 7,3 7,1 - - - - 0,0
18.05.2017 05:00:00 6,8 6,7 - - - - 0,0
18.05.2017 04:00:00 5,1 4,9 - - - - 0,0
18.05.2017 03:00:00 3,8 3,4 - - - - 0,0
18.05.2017 02:00:00 4,7 4,3 - - - - 0,0
18.05.2017 01:00:00 5,1 4,6 - - - - 0,0
18.05.2017 00:00:00 5,4 4,6 - - - - 0,0
17.05.2017 23:00:00 6,0 4,7 - - - - 0,0
17.05.2017 22:00:00 8,2 5,8 - - - - 0,0
17.05.2017 21:00:00 10,2 6,8 - - - - 0,0
17.05.2017 20:00:00 11,6 7,0 - - - - 0,0
17.05.2017 19:00:00 12,4 8,7 - - - - 0,0
17.05.2017 18:00:00 13,4 8,4 - - - - 0,0
17.05.2017 17:00:00 13,8 8,8 - - - - 0,0
17.05.2017 16:00:00 14,1 8,6 - - - - 0,0
17.05.2017 15:00:00 14,0 7,9 - - - - 0,0

tt = Temperatura
td = dewpoint
tt 5cm = Temperatura 5cm
tt -20cm = Temperatura -20cm
tt -100cm = Temperatura -100cm
vv = visibility
rr = precipitazioni

Stazioni seguenti

WeatherPro
AMSI
MeteoEarth